LFBZ

Biarritz-Bayonne/Anglet

Airport
ICAO code
LFBZ
Summary
ICAO Region
EUR
ICAO Territory
Location

Biarritz-Bayonne/Anglet, Aquitaine,

Coordinates
43° 28' 6" N , 1° 31' 23" W
KCC
Airport WX
Fog
Metar
LFBZ 181730Z AUTO 34009KT 300V020 9999 FEW023/// 13/07 Q1023 NOSIG

Description

International airport serving Biarritz.

Climatology

Temperate Marine climate/Oceanic climate (Köppen climate classification Cfb). Moderately cool summer and comparatively warm winter with a temperature range of only 14°C. Prevailing south-westerly winds from the Atlantic Ocean.

Runways

Designator Length Width Surface Rops
9/27 2250 45 ASP Yes/Yes

Airport map

Aerial View

SKYbrary Partners:

Safety knowledge contributed by: